Flag for U.S.A. Weather past 2 weeks in Kodiak, Alaska, U.S.A.

Now
49 °F

Passing clouds.


Feels Like: 46 °F
Forecast: 52 / 63 °F
Wind: 6 mph from West

Location: Kodiak Weather Reporting Station

Current Time: Jul 2, 2015 at 5:39:29 AM

Latest Report: Jul 2, 2015 at 4:53 AM


Visibility: 10 mi

Pressure: 30.05 "Hg

Humidity: 84%

Dew point: 44 °F

Location of KodiakLocation

Historic Weather in Kodiak — Graph

°F

Kodiak temperature yesterday

Maximum temperature yesterday: 59 °F (at 12:53 PM)
Minimum temperature yesterday: 50 °F (at 11:53 PM)
Average temperature yesterday: 55 °F

Past Weeks' High & Low Weather Summary

 TemperatureHumidityPressure
High75 °F (Jun 18, 5:53 PM)100% (Jun 17, 7:53 AM)30.18 "Hg (Jun 17, 7:53 AM)
Low48 °F (Jun 18, 4:53 AM)46% (Jun 18, 2:53 PM)29.69 "Hg (Jun 27, 6:53 PM)
Average54 °F88%29.95 "Hg
* Reported Jun 17 3:53 AM — Jul 2 3:53 AM, Kodiak, Weather by CustomWeather, © 2015

Note: Actual official high and low records may vary slightly from our data, if they occured in-between our weather recording intervals... More about our weather records

Advertising

Kodiak weather history for previous 24 hours

 ConditionsComfort  
Time TempWeatherWind HumidityBarometerVisibility
3:53 AM
Thu, Jul 2
57 °FPartly cloudy.5 mph60%30.06 "Hg10 mi
2:53 AM52 °FPassing clouds.8 mph75%30.06 "Hg10 mi
1:53 AM49 °FPassing clouds.5 mph86%30.08 "Hg10 mi
12:53 AM49 °FPassing clouds.6 mph90%30.08 "Hg10 mi
11:53 PM
Wed, Jul 1
50 °FScattered clouds.6 mph86%30.09 "Hg10 mi
10:53 PM52 °FPassing clouds.5 mph83%30.09 "Hg10 mi
9:53 PM57 °FScattered clouds.No wind72%30.10 "Hg10 mi
8:53 PM57 °FScattered clouds.6 mph74%30.10 "Hg10 mi
7:53 PM58 °FScattered clouds.6 mph72%30.11 "Hg10 mi
6:53 PM58 °FBroken clouds.7 mph72%30.12 "Hg9 mi
5:53 PM59 °FBroken clouds.9 mph72%30.12 "Hg10 mi
4:53 PM57 °FBroken clouds.7 mph74%30.14 "Hg10 mi
3:53 PM57 °FBroken clouds.13 mph74%30.14 "Hg10 mi
2:53 PM59 °FBroken clouds.12 mph67%30.14 "Hg10 mi
1:53 PM59 °FBroken clouds.9 mph64%30.15 "Hg10 mi
12:53 PM59 °FScattered clouds.12 mph69%30.15 "Hg10 mi
11:53 AM58 °FBroken clouds.8 mph67%30.15 "Hg10 mi
10:53 AM56 °FBroken clouds.9 mph72%30.15 "Hg10 mi
10:00 AM56 °FMostly cloudy.9 mph75%30.15 "Hg10 mi
8:53 AM54 °FPartly sunny.3 mph80%30.16 "Hg10 mi
7:53 AM53 °FBroken clouds.5 mph83%30.15 "Hg10 mi
6:53 AM51 °FPartly sunny.6 mph86%30.15 "Hg10 mi
5:53 AM51 °FPassing clouds.5 mph89%30.15 "Hg10 mi
Weather by CustomWeather, © 2015

See weather overviewHow to use our weather pages